STARLINK-35016

Last updated on Sat Sep 13 2025 00:02:07 GMT+0000 (Coordinated Universal Time)

1 65341U 25189U 25255.58335648 -.01537876 00000+0 -15489-1 0 9991 2 65341 53.1594 319.0814 0001304 59.1391 56.9484 15.67635892 3731
UTC large
Height (km)
Speed (km/s)
/
Latitude / Longitude
Inclination (degrees)
Orbital Period (minutes)
Azimuth
Elevation
Range (km)
Doppler Factor

Next 0 passes for location: London (51.5072 / 0.1276)

Sorry there are no passes over London.